Weather History for Bloomington, IN

Change the Weather History Date:

Sunday, July 7, 2013

  Actual Average Record
Temperature  
Mean Temperature 74 °F 74 °F  
Max Temperature 84 °F 84 °F 106 °F (2012)
Min Temperature 64 °F 64 °F 54 °F (2006)
Degree Days  
Heating Degree Days 0 0  
Month to date heating degree days 0 0  
Since 1 June heating degree days 7 15  
Since 1 July heating degree days 0 0  
Cooling Degree Days 9 9  
Month to date cooling degree days 40 63  
Year to date cooling degree days 383 353  
Since 1 June cooling degree days 264 271  
Growing Degree Days 23 (Base 50)    
Moisture  
Dew Point 66 °F    
Average Humidity 78    
Maximum Humidity 100    
Minimum Humidity 55    
Precipitation  
Precipitation 0.00 in 0.16 in 1.25 in (2008)
Month to date precipitation 0.48 1.08  
Year to date precipitation 25.06 25.86  
Sea Level Pressure  
Sea Level Pressure 30.07 in    
Wind  
Wind Speed 4 mph (South)    
Max Wind Speed 9 mph    
Max Gust Speed 14 mph    
Visibility 9 miles    
Events      
T = Trace of Precipitation, MM = Missing Value Source: NWS Daily Summary

Daily Weather History Graph

Daily Weather History Graph

Search for Another Location

Airport:

Trip Planner

Search our weather history database for the weather conditions in past years. The results will help you decide how hot, cold, wet, or windy it might be!

Date:

Astronomy

Jul. 07, 2013 Rise Set
Actual Time 6:27 AM EDT 9:15 PM EDT
Civil Twilight 5:55 AM EDT 9:46 PM EDT
Nautical Twilight 5:15 AM EDT 10:26 PM EDT
Astronomical Twilight 4:30 AM EDT 11:12 PM EDT
Moon 6:02 AM EDT (7/7) 8:39 PM EDT (7/7)
Length of Visible Light 15h 51m
Length of Day
14h 47m
Waning Crescent, 0% of the Moon is Illuminated
Jul 7
Waning Crescent
Jul 8
New
Jul 15
First Quarter
Jul 22
Full
Jul 29
Last Quarter

Hourly Weather History & Observations

Time (EDT) Temp. Heat Index Dew Point Humidity Pressure Visibility Wind Dir Wind Speed Gust Speed Precip Events Conditions
12:53 AM 64.9 °F - 64.0 °F 97% 30.08 in 10.0 mi South 3.5 mph - N/A   Clear
1:53 AM 64.9 °F - 64.0 °F 97% 30.05 in 10.0 mi South 3.5 mph - N/A   Clear
2:53 AM 64.0 °F - 64.0 °F 100% 30.05 in 8.0 mi Calm Calm - N/A   Clear
3:53 AM 66.0 °F - 64.9 °F 96% 30.04 in 10.0 mi SE 3.5 mph - N/A   Clear
4:53 AM 66.0 °F - 64.9 °F 96% 30.04 in 8.0 mi SSE 4.6 mph - N/A   Clear
5:13 AM 66.2 °F - 64.4 °F 94% 30.06 in 9.0 mi SSE 5.8 mph - N/A   Scattered Clouds
5:25 AM 66.2 °F - 66.2 °F 100% 30.06 in 7.0 mi SSE 4.6 mph - N/A   Mostly Cloudy
5:53 AM 66.0 °F - 66.0 °F 100% 30.04 in 5.0 mi South 4.6 mph - N/A   Overcast
6:20 AM 66.2 °F - 64.4 °F 94% 30.07 in 7.0 mi SE 3.5 mph - N/A   Mostly Cloudy
6:27 AM 66.2 °F - 64.4 °F 94% 30.07 in 6.0 mi SSE 4.6 mph - N/A   Mostly Cloudy
6:53 AM 66.0 °F - 66.0 °F 100% 30.06 in 3.0 mi Calm Calm - N/A   Overcast
7:12 AM 66.2 °F - 66.2 °F 100% 30.09 in 2.5 mi Calm Calm - N/A   Overcast
7:53 AM 66.9 °F - 66.9 °F 100% 30.07 in 6.0 mi South 4.6 mph - N/A   Overcast
8:09 AM 68.0 °F - 66.2 °F 94% 30.09 in 10.0 mi South 4.6 mph - N/A   Overcast
8:25 AM 69.8 °F - 66.2 °F 88% 30.10 in 10.0 mi South 4.6 mph - N/A   Scattered Clouds
8:33 AM 68.0 °F - 66.2 °F 94% 30.10 in 10.0 mi SSE 3.5 mph - N/A   Mostly Cloudy
8:43 AM 68.0 °F - 66.2 °F 94% 30.11 in 10.0 mi Calm Calm - N/A   Mostly Cloudy
8:53 AM 69.1 °F - 66.9 °F 93% 30.09 in 10.0 mi South 4.6 mph - N/A   Overcast
9:53 AM 70.0 °F - 66.9 °F 90% 30.10 in 10.0 mi SSW 4.6 mph - N/A   Overcast
10:25 AM 71.6 °F - 66.2 °F 83% 30.11 in 10.0 mi Calm Calm - N/A   Scattered Clouds
10:53 AM 73.0 °F - 66.9 °F 81% 30.09 in 10.0 mi SSW 4.6 mph - N/A   Partly Cloudy
11:23 AM 73.4 °F - 66.2 °F 78% 30.11 in 10.0 mi West 5.8 mph - N/A   Mostly Cloudy
11:37 AM 73.4 °F - 66.2 °F 78% 30.11 in 10.0 mi SSW 4.6 mph - N/A   Scattered Clouds
11:53 AM 75.0 °F - 66.9 °F 76% 30.09 in 10.0 mi Calm Calm - N/A   Partly Cloudy
12:53 PM 79.0 °F - 66.9 °F 66% 30.09 in 10.0 mi Calm Calm - N/A   Partly Cloudy
1:53 PM 82.0 °F 84.5 °F 66.9 °F 60% 30.07 in 10.0 mi Variable 5.8 mph - N/A   Partly Cloudy
2:53 PM 81.0 °F 83.3 °F 66.9 °F 62% 30.06 in 10.0 mi West 5.8 mph - N/A   Partly Cloudy
3:53 PM 82.9 °F 85.4 °F 66.9 °F 58% 30.05 in 10.0 mi SSW 8.1 mph - N/A   Scattered Clouds
4:53 PM 82.0 °F 83.8 °F 64.9 °F 56% 30.04 in 10.0 mi SW 4.6 mph - N/A   Partly Cloudy
5:53 PM 82.9 °F 84.6 °F 64.9 °F 54% 30.03 in 10.0 mi Variable 3.5 mph - N/A   Clear
6:53 PM 82.0 °F 84.1 °F 66.0 °F 58% 30.02 in 10.0 mi WSW 3.5 mph - N/A   Clear
7:53 PM 80.1 °F 82.1 °F 66.0 °F 62% 30.03 in 10.0 mi SW 4.6 mph - N/A   Clear
8:53 PM 75.9 °F - 69.1 °F 79% 30.04 in 10.0 mi Calm Calm - N/A   Clear
9:53 PM 72.0 °F - 69.1 °F 91% 30.06 in 10.0 mi South 3.5 mph - N/A   Partly Cloudy
10:53 PM 73.9 °F - 68.0 °F 82% 30.07 in 10.0 mi SSW 5.8 mph - N/A   Clear
11:53 PM 73.0 °F - 68.0 °F 84% 30.07 in 10.0 mi South 5.8 mph - N/A   Scattered Clouds